Volver al catálogo

CZ-6A DEB

ActivoSSO
NORAD 56582·DEBRIS·🇨🇳 China

Lanzado Nov 11, 2022 desde Taiyuan Satellite Launch Center

Loading…

Próximos Pases (próximas 24 horas)

TLE

ActualizadoSource: Space-Track

Época: Sep 14, 2026, 00:02 UTC

1 56582U 22151ADE 26257.00179789  .00000936  00000-0  41551-3 0  9997
2 56582  98.7593 276.1072 0010027  70.9047 289.3218 14.25380282187544

Sigue CZ-6A DEB en tiempo real con AllMySat

Download on the App Store